Location: Albany
(35.0170°S, 117.8920°E)
Time: 10:01:49
(UTC+08:00)

S-56A Canister/Altair - Pass Details

Date: 27 January 2021
Orbit: 632 x 2501 km, 38.9° (Epoch: 25 February)

Event Time Altitude Azimuth Distance (km) Brightness Sun altitude
Rises 12:02:34 0° 312° (NW) 5,001 11.8 72.9°
Reaches altitude 10° 12:05:32 10° 315° (NW) 4,231 11.6 73.0°
Maximum altitude 12:17:30 65° 33° (NNE) 2,494 12.2 73.4°
Drops below altitude 10° 12:32:27 10° 110° (ESE) 5,177 11.8 73.2°
Sets 12:36:29 0° 112° (ESE) 6,147 12.0 73.0°
